TIME,DELAY(SENSOR),PRES,OXYGEN,RAWTEMP,T(OPTODE),TCPHASE,FLUOR,BETA(BETA700),BETA(BETA412),BETA(BETA440),CDOM,C(CSC),ED(ED411.90),ED(ED443.80),ED(ED489.40),ED(ED554.70),LU(LU412.20),LU(LU443.80),LU(LU489.40),LU(LU555.00),COMP,TILTX,TILTY,CHECK
1342218137,5809,844.7999877929688000,171.9945068359375000,401.8536987304687500,10.5461902618408200,38.1120796203613300,53,99,99,79,81,14417,2146956589,2147517019,2147284544,2147502720,2147091483,2146926985,2147699858,2147118198,2698,-2,8,51736
1342221733,5802,965.6400146484375000,187.4618988037109400,479.9930114746094000,8.1488933563232420,38.3517189025878900,53,103,100,80,81,14409,2146955318,2147515273,2147293668,2147515913,2147089572,2146926116,2147711652,2147115794,1452,-1,8,25766
1342225333,5807,986.1699829101562000,200.7257995605468800,495.1982116699219000,7.6783900260925290,37.7710494995117200,53,106,99,79,82,14405,2146955538,2147517540,2147295003,2147519012,2147090322,2146921782,2147714642,2147116370,354,-2,8,129
1342228933,5804,988.3200073242188000,201.7875976562500000,497.5806884765625000,7.6045289039611820,37.7475090026855500,52,101,100,80,81,14402,2146955456,2147515126,2147293869,2147520091,2147090596,2146921444,2147716260,2147120091,3239,-2,8,4691
1342232533,5809,996.5700073242188000,202.1806030273437500,497.8160095214844000,7.5972352027893070,37.7273406982421900,51,100,100,83,82,14402,2146957952,2147517814,2147294720,2147522386,2147089664,2146922057,2147716187,2147116141,28,-1,8,59822
1342236133,5806,994.4199829101562000,203.7362976074218800,499.2366027832031000,7.5531740188598630,37.6569709777832000,53,101,100,79,81,14401,2146956589,2147518226,2147294473,2147519963,2147089033,2146920475,2147716169,2147118043,3061,-2,8,60915
1342239733,5805,996.0399780273438000,205.3063964843750000,500.4176025390625000,7.5165371894836430,37.5836906433105500,53,102,102,80,82,14399,2146956992,2147518637,2147293878,2147516690,2147088886,2146922240,2147715794,2147116132,3017,-2,8,42005
1342243333,5804,997.9400024414062000,205.5285034179687500,500.8192138671875000,7.5040779113769530,37.5763511657714840,53,101,101,79,82,14394,2146959680,2147517696,2147295286,2147520859,2147090249,2146919058,2147716096,2147118738,3106,-2,8,53014
1342246933,5805,1000.0100097656250000,205.8992004394531200,500.9270019531250000,7.5007300376892090,37.5564002990722660,53,102,100,80,82,14390,2146957412,2147517174,2147296118,2147521801,2147089234,2146923236,2147715648,2147114358,3521,-2,8,15368
1342250533,5805,999.5000000000000000,206.2319946289062500,501.6156921386719000,7.4793610572814940,37.5482597351074200,53,102,100,78,81,14392,2146958875,2147518089,2147296082,2147520320,2147088448,2146923675,2147722157,2147114971,248,-1,8,38453
1342254133,5808,998.8400268554688000,207.3190002441406200,503.7767028808594000,7.4122781753540040,37.5218009948730500,53,106,101,79,82,14378,2146958080,2147514953,2147295981,2147520649,2147090953,2146919506,2147719332,2147115739,9,-1,8,10732
1342257733,5803,997.0999755859375000,207.4414062500000000,503.7634887695312500,7.4126877784729000,37.5133209228515600,52,103,99,78,82,14382,2146959149,2147513261,2147294848,2147518674,2147091273,2146923538,2147717924,2147118171,3514,-1,8,53384
1342261333,5808,999.2000122070312000,207.5384979248047000,503.8241882324219000,7.4108037948608400,37.5094490051269500,52,103,100,79,81,14384,2146958354,2147515849,2147294445,2147520009,2147088274,2146922221,2147718034,2147116580,114,-1,8,38571
1342264933,5805,1002.2299804687500000,207.0951995849609400,503.7267150878906000,7.4138288497924805,37.5339584350585940,52,101,98,79,82,14382,2146958043,2147516141,2147294317,2147521664,2147090761,2146921225,2147716909,2147114276,3318,-1,8,2340
1342268533,5805,1004.3400268554688000,206.0200958251953000,502.8487854003906000,7.4410839080810550,37.5826797485351560,52,104,100,79,81,14376,2146955648,2147517339,2147296923,2147520740,2147089947,2146925110,2147711981,2147116388,3557,-1,8,48013
1342272133,5804,999.1400146484375000,205.6004943847656200,503.8192138671875000,7.4109587669372560,37.6244201660156250,52,101,101,79,81,14378,2146954944,2147518189,2147295040,2147517732,2147089307,2146918409,2147716489,2147116864,3264,-2,8,37029
1342275733,5804,998.0200195312500000,206.9752960205078000,505.4208984375000000,7.3612160682678220,37.5703086853027340,52,99,100,79,81,14372,2146955730,2147514267,2147294610,2147523776,2147090834,2146922889,2147721261,2147114852,3462,-2,8,51921
1342279333,5805,1006.1500244140625000,206.6441040039062500,503.8429870605469000,7.4102201461791990,37.5628700256347660,52,102,99,79,81,14375,2146952329,2147518619,2147294089,2147522313,2147090313,2146924772,2147713865,2147117540,3393,-2,8,32934
1342282933,5804,1005.8800048828125000,205.3197021484375000,503.6108093261719000,7.4174270629882810,37.6377983093261700,53,101,100,80,82,14369,2146959168,2147515922,2147294555,2147521883,2147091739,2146926144,2147719003,2147115849,231,-1,8,63604
1342286533,5804,1004.3800048828125000,206.6746063232422000,505.3818969726562500,7.3624291419982910,37.5880508422851560,53,104,101,79,82,14369,2146956681,2147514569,2147293952,2147519616,2147093257,2146919259,2147716909,2147116342,3375,-2,8,31987
1342290133,5806,1003.3599853515625000,207.0429992675781200,504.5804138183594000,7.3873200416564940,37.5521507263183600,52,106,100,79,82,14369,2146955382,2147519323,2147298706,2147521755,2147091410,2146919945,2147720073,2147118774,3437,-1,8,7466
1342293733,5805,1001.1500244140625000,206.8585052490234400,505.7294921875000000,7.3516321182250980,37.5828208923339840,52,103,101,78,82,14366,2146958582,2147516169,2147295433,2147520996,2147090294,2146924196,2147717147,2147116077,975,-2,8,20941
1342297333,5804,1006.2399902343750000,206.3486938476562500,504.7078857421875000,7.3833608627319340,37.5952796936035160,52,100,100,79,81,14368,2146955236,2147515337,2147298578,2147522486,2147091501,2146925302,2147715794,2147118848,3434,-2,8,9649
1342300933,5804,1005.4099731445312000,205.9750976562500000,504.5281066894531000,7.3889441490173340,37.6151618957519500,53,102,101,79,82,14363,2146959634,2147516745,2147293741,2147521435,2147092169,2146925110,2147711643,2147118107,3545,-1,8,31305
1342304533,5803,1007.0200195312500000,207.8168945312500000,504.6788940429687500,7.3842620849609375,37.5069999694824200,52,103,100,78,81,14368,2146957394,2147519762,2147294134,2147523190,2147093440,2146927414,2147716763,2147115520,3273,-2,8,30802
1342308133,5809,1011.2299804687500000,207.5832061767578000,504.0292053222656000,7.4044370651245120,37.5103302001953100,52,104,100,80,81,14364,2146955072,2147519268,2147295853,2147521078,2147090322,2146925632,2147718628,2147114157,67,-2,8,10796
1342311733,5805,1011.1300048828125000,207.2017059326172000,503.1760864257812500,7.4309229850769040,37.5177612304687500,52,104,100,78,82,14363,2146959250,2147515584,2147291044,2147522194,2147091867,2146923712,2147720941,2147113362,2998,-2,8,42909
1342315333,5807,1011.8599853515625000,206.9730987548828000,503.9637145996094000,7.4064698219299320,37.5452690124511700,52,103,101,78,82,14364,2146956269,2147518134,2147292278,2147521664,2147092681,2146925860,2147717659,2147118281,10,-1,8,38779
1342318933,5804,1011.9299926757812000,207.1170959472656200,503.8395996093750000,7.4103250503540040,37.5345611572265600,52,125,99,79,82,14365,2146958784,2147518363,2147294180,2147522258,2147094811,2146920813,2147718491,2147116534,3498,-1,8,4919
1342322533,5806,1011.4299926757812000,205.2133026123047000,504.0241088867187500,7.4045948982238770,37.6514091491699200,52,104,100,78,82,14364,2146955858,2147518144,2147295497,2147516470,2147091154,2146920941,2147719268,2147117184,3495,-1,8,13749
1342326133,5806,1011.1699829101562000,205.3970947265625000,504.0234069824219000,7.4046168327331540,37.6408309936523440,52,104,100,80,81,14352,2146954130,2147522203,2147292790,2147521728,2147092352,2146918573,2147717650,2147115931,125,-2,8,1742
1342329733,5803,1009.5300292968750000,206.6161956787109400,505.4155883789062500,7.3613810539245605,37.5924606323242200,52,104,100,80,81,14362,2146957184,2147519725,2147298194,2147520576,2147093339,2146919314,2147713901,2147117970,3465,-1,8,58121
1342333333,5804,1007.0399780273438000,207.7725982666015600,505.6448059082031000,7.3542628288269040,37.5269813537597660,52,104,99,79,81,14360,2146956827,2147516516,2147293833,2147517156,2147091245,2146919497,2147720365,2147118253,3500,-1,8,3172
1342336933,5803,1007.7700195312500000,206.9122924804687500,505.5205078125000000,7.3581237792968750,37.5757598876953100,53,102,101,79,82,14356,2146955721,2147514514,2147297042,2147518628,2147094034,2146921444,2147719771,2147117842,3462,-1,8,45109
1342340533,5807,1009.3400268554688000,206.5148010253906200,505.4258117675781000,7.3610630035400390,37.5982093811035160,52,103,100,79,81,14356,2146956699,2147522468,2147295332,2147520667,2147092196,2146918171,2147721782,2147117915,399,-2,8,15728
1342344133,5809,1014.2800292968750000,206.9082031250000000,504.8197937011719000,7.3798861503601070,37.5638999938964840,52,104,100,79,83,14356,2146959204,2147520384,2147293010,2147518482,2147092644,2146921664,2147719040,2147117622,21,-1,8,43648
1342347733,5805,1012.2500000000000000,205.9996948242187500,505.0068969726562500,7.3740749359130860,37.6213684082031250,53,103,100,79,82,14354,2146957357,2147517842,2147296329,2147519990,2147092571,2146919149,2147716278,2147117156,722,-1,8,18317
1342351333,5805,1013.2600097656250000,206.7566070556640600,504.6995849609375000,7.3836197853088380,37.5714187622070300,53,102,101,79,82,14354,2146958866,2147520274,2147298322,2147517897,2147092406,2146921801,2147718747,2147117046,280,-2,8,26276
1342354933,5806,1012.7500000000000000,205.4179992675781200,504.8710937500000000,7.3782939910888670,37.6540603637695300,53,103,99,81,81,14346,2146958345,2147519488,2147295250,2147522861,2147091291,2146927542,2147721974,2147116361,765,-1,8,17259
1342358533,5808,1011.5599975585938000,207.7926025390625000,506.5101928710937500,7.3273777961730960,37.5411300659179700,52,102,100,79,82,14343,2146957732,2147517138,2147295058,2147521170,2147089627,2146922989,2147721115,2147117129,915,-1,8,46149
1342360255,5803,1011.5300292968750000,207.5213012695312500,506.0715026855469000,7.3410072326660160,37.5496788024902340,52,101,99,80,81,14367,2146957833,2147517522,2147293979,2147520950,2147089874,2146919414,2147717787,2147115812,210,-1,8,51971
